BEL9KA EBBR-LIRF

Flight info

Callsign BEL9KA
Flight time N/A
Altitude 37000
Route SOPOK Y863 ROPUV L607 UTABA M738 BATUB DCT TIRUL M738 NATAG DCT ADOSA DCT PELEG DCT BAGNO M726 GAVRA Y345 RITEB
Aircraft A320/M-DE3FGHIJ1LORVWY/HB1

Departure

Time 2026-04-30 13:39
Airport Brussels Airport (EBBR)

Arrival

Time N/A
Airport Rome–Fiumicino Leonardo da Vinci International Airport (LIRF)
Time Latitude Longitude Altitude Speed Heading
2026-04-30 12:56 50.90454 4.48727 193 ft 0 kts 153°
2026-04-30 13:25 50.90463 4.48719 193 ft 2 kts 153°
2026-04-30 13:26 50.90498 4.48690 193 ft 2 kts 135°
2026-04-30 13:26 50.90512 4.48650 193 ft 2 kts 100°
2026-04-30 13:27 50.90511 4.48607 193 ft 0 kts 68°
2026-04-30 13:28 50.90507 4.48597 193 ft 0 kts 65°
2026-04-30 13:29 50.90510 4.48607 193 ft 2 kts 65°
2026-04-30 13:30 50.90543 4.48716 193 ft 0 kts 64°
2026-04-30 13:32 50.90550 4.48739 193 ft 3 kts 64°
2026-04-30 13:33 50.90584 4.48857 193 ft 8 kts 65°
2026-04-30 13:33 50.90641 4.49063 193 ft 11 kts 66°
2026-04-30 13:34 50.90609 4.49161 193 ft 12 kts 151°
2026-04-30 13:34 50.90358 4.49344 193 ft 14 kts 149°
2026-04-30 13:35 50.90266 4.49398 193 ft 14 kts 189°
2026-04-30 13:35 50.90059 4.49329 193 ft 15 kts 195°
2026-04-30 13:36 50.89843 4.49238 193 ft 16 kts 192°
2026-04-30 13:36 50.89731 4.49182 193 ft 16 kts 197°
2026-04-30 13:36 50.89513 4.49048 193 ft 17 kts 196°
2026-04-30 13:37 50.89396 4.49017 193 ft 17 kts 152°
2026-04-30 13:37 50.89296 4.49080 193 ft 7 kts 195°
2026-04-30 13:38 50.89173 4.49037 193 ft 11 kts 183°
2026-04-30 13:38 50.89159 4.49144 193 ft 14 kts 69°
2026-04-30 13:38 50.89540 4.50789 193 ft 144 kts 70°
2026-04-30 13:39 50.90325 4.54008 1313 ft 161 kts 64°
2026-04-30 13:39 50.91406 4.57171 2424 ft 174 kts 66°
2026-04-30 13:40 50.91965 4.58951 2821 ft 189 kts 68°
2026-04-30 13:40 50.92582 4.60896 3211 ft 209 kts 67°
2026-04-30 13:40 50.93264 4.63065 3641 ft 228 kts 69°
2026-04-30 13:40 50.93868 4.65435 4129 ft 243 kts 75°
2026-04-30 13:41 50.94358 4.67949 4849 ft 248 kts 77°
2026-04-30 13:41 50.94863 4.70549 5693 ft 251 kts 77°
2026-04-30 13:41 50.95382 4.73159 6529 ft 254 kts 77°
2026-04-30 13:41 50.95604 4.75897 7321 ft 253 kts 98°
2026-04-30 13:42 50.95067 4.78505 8119 ft 254 kts 121°
2026-04-30 13:42 50.93899 4.80582 8905 ft 260 kts 137°
2026-04-30 13:42 50.91086 4.84284 10454 ft 269 kts 138°
2026-04-30 13:43 50.89595 4.86167 11016 ft 283 kts 143°
2026-04-30 13:43 50.87781 4.87652 11372 ft 305 kts 157°
2026-04-30 13:43 50.85680 4.88394 11889 ft 320 kts 169°
2026-04-30 13:43 50.83459 4.88762 12635 ft 324 kts 171°
2026-04-30 13:44 50.81216 4.89083 13341 ft 328 kts 171°
2026-04-30 13:44 50.78934 4.89417 14028 ft 331 kts 171°
2026-04-30 13:44 50.76646 4.89763 14691 ft 335 kts 171°
2026-04-30 13:44 50.74326 4.90121 15344 ft 338 kts 171°
2026-04-30 13:45 50.69635 4.90934 16588 ft 343 kts 164°
2026-04-30 13:45 50.67438 4.92381 17154 ft 341 kts 143°
2026-04-30 13:45 50.65771 4.94924 17732 ft 339 kts 123°
2026-04-30 13:46 50.64749 4.98262 18307 ft 340 kts 108°
2026-04-30 13:46 50.64025 5.01805 18874 ft 343 kts 107°
2026-04-30 13:46 50.63312 5.05406 19404 ft 346 kts 107°
2026-04-30 13:46 50.62593 5.08996 19938 ft 349 kts 107°
2026-04-30 13:47 50.61841 5.12699 20248 ft 351 kts 107°
2026-04-30 13:47 50.61097 5.16326 20280 ft 351 kts 107°
2026-04-30 13:47 50.60342 5.19974 20283 ft 351 kts 107°
2026-04-30 13:47 50.59589 5.23608 20284 ft 351 kts 107°
2026-04-30 13:48 50.58762 5.27231 20280 ft 352 kts 113°
2026-04-30 13:48 50.57561 5.30619 20283 ft 354 kts 122°
2026-04-30 13:48 50.56005 5.33630 20283 ft 356 kts 132°
2026-04-30 13:48 50.54203 5.36320 20365 ft 361 kts 135°
2026-04-30 13:49 50.52339 5.38970 20882 ft 363 kts 135°
2026-04-30 13:49 50.50470 5.41613 21485 ft 363 kts 135°
2026-04-30 13:49 50.48594 5.44276 21973 ft 366 kts 135°
2026-04-30 13:49 50.46698 5.46973 22446 ft 369 kts 135°
2026-04-30 13:50 50.44821 5.49646 22905 ft 372 kts 134°
2026-04-30 13:50 50.40945 5.55165 23806 ft 378 kts 134°
2026-04-30 13:50 50.39009 5.57920 24240 ft 380 kts 134°
2026-04-30 13:51 50.37057 5.60696 24660 ft 383 kts 134°
2026-04-30 13:51 50.35064 5.63526 25069 ft 386 kts 134°
2026-04-30 13:51 50.33087 5.66329 25470 ft 389 kts 135°
2026-04-30 13:51 50.31080 5.69170 25862 ft 392 kts 135°
2026-04-30 13:52 50.29028 5.72070 26255 ft 395 kts 135°
2026-04-30 13:52 50.27093 5.75034 26628 ft 395 kts 128°
2026-04-30 13:52 50.25523 5.78513 26984 ft 393 kts 117°
2026-04-30 13:52 50.24416 5.82431 27333 ft 393 kts 106°
2026-04-30 13:53 50.23672 5.86527 27695 ft 394 kts 103°
2026-04-30 13:53 50.22986 5.90707 28042 ft 397 kts 102°
2026-04-30 13:53 50.22302 5.94888 28380 ft 399 kts 103°
2026-04-30 13:53 50.21607 5.99073 28715 ft 401 kts 103°
2026-04-30 13:54 50.20906 6.03238 29037 ft 403 kts 103°
2026-04-30 13:54 50.20193 6.07435 29343 ft 405 kts 103°
2026-04-30 13:54 50.19492 6.11692 29646 ft 407 kts 101°
2026-04-30 13:54 50.18968 6.16033 29941 ft 408 kts 96°
2026-04-30 13:55 50.18675 6.20428 30226 ft 409 kts 92°
2026-04-30 13:55 50.18619 6.24867 30508 ft 410 kts 87°
2026-04-30 13:55 50.18792 6.29281 30784 ft 412 kts 84°
2026-04-30 13:55 50.19059 6.33673 31069 ft 413 kts 83°
2026-04-30 13:56 50.19345 6.38111 31337 ft 414 kts 83°
2026-04-30 13:56 50.19629 6.42553 31586 ft 416 kts 83°
2026-04-30 13:56 50.19913 6.47073 31832 ft 418 kts 83°
2026-04-30 13:56 50.20192 6.51571 32070 ft 419 kts 83°
2026-04-30 13:57 50.20468 6.56091 32309 ft 421 kts 83°
2026-04-30 13:57 50.20740 6.60588 32536 ft 422 kts 83°
2026-04-30 13:57 50.21013 6.65130 32795 ft 422 kts 84°
2026-04-30 13:57 50.21278 6.69559 33092 ft 421 kts 84°
2026-04-30 13:58 50.21549 6.74116 33407 ft 420 kts 84°
2026-04-30 13:58 50.21958 6.83051 34012 ft 418 kts 87°
2026-04-30 13:58 50.21955 6.87610 34283 ft 418 kts 90°
2026-04-30 13:59 50.21798 6.92137 34538 ft 418 kts 93°
2026-04-30 13:59 50.21571 6.96609 34770 ft 418 kts 93°
2026-04-30 13:59 50.21334 7.01141 35012 ft 418 kts 92°
2026-04-30 13:59 50.21095 7.05682 35257 ft 417 kts 92°
2026-04-30 14:00 50.20856 7.10200 35488 ft 417 kts 92°
2026-04-30 14:00 50.20374 7.19194 35854 ft 418 kts 92°
2026-04-30 14:00 50.20132 7.23657 36013 ft 419 kts 93°
2026-04-30 14:01 50.19787 7.28197 36167 ft 421 kts 96°
2026-04-30 14:01 50.19280 7.32703 36320 ft 422 kts 99°
2026-04-30 14:01 50.18610 7.37158 36459 ft 424 kts 103°
2026-04-30 14:01 50.17618 7.41480 36571 ft 429 kts 111°
2026-04-30 14:02 50.16223 7.45587 36698 ft 433 kts 118°
2026-04-30 14:02 50.14454 7.49394 36815 ft 437 kts 126°
2026-04-30 14:02 50.12355 7.52785 36916 ft 442 kts 134°
2026-04-30 14:02 50.09917 7.55753 37024 ft 446 kts 141°
2026-04-30 14:03 50.07376 7.58442 37139 ft 448 kts 142°
2026-04-30 14:03 50.04775 7.61122 37248 ft 448 kts 142°
2026-04-30 14:03 49.99601 7.66474 37333 ft 450 kts 142°
2026-04-30 14:04 49.94439 7.71861 37334 ft 450 kts 142°
2026-04-30 14:04 49.89273 7.77310 37332 ft 449 kts 140°
2026-04-30 14:05 49.84376 7.83114 37332 ft 449 kts 138°
2026-04-30 14:05 49.79445 7.89041 37324 ft 449 kts 138°
2026-04-30 14:06 49.72057 7.97853 37309 ft 449 kts 139°
2026-04-30 14:07 49.64650 8.06636 37307 ft 449 kts 138°
2026-04-30 14:08 49.57267 8.15380 37317 ft 450 kts 138°
2026-04-30 14:08 49.49855 8.24120 37328 ft 450 kts 139°
2026-04-30 14:09 49.44893 8.29950 37332 ft 450 kts 139°
2026-04-30 14:10 49.37450 8.38672 37335 ft 451 kts 139°
2026-04-30 14:10 49.32480 8.44476 37335 ft 451 kts 139°
2026-04-30 14:11 49.27497 8.50276 37335 ft 452 kts 139°
2026-04-30 14:11 49.22491 8.56091 37333 ft 452 kts 139°
2026-04-30 14:12 49.17489 8.61890 37321 ft 453 kts 139°
2026-04-30 14:12 49.12533 8.67618 37303 ft 453 kts 139°
2026-04-30 14:13 49.07546 8.73392 37283 ft 454 kts 139°
2026-04-30 14:13 49.02541 8.79206 37269 ft 454 kts 139°
2026-04-30 14:14 48.97523 8.85017 37262 ft 455 kts 139°
2026-04-30 14:14 48.92491 8.90827 37259 ft 455 kts 139°
2026-04-30 14:15 48.87550 8.96517 37259 ft 455 kts 139°
2026-04-30 14:15 48.82715 9.02074 37265 ft 456 kts 139°
2026-04-30 14:16 48.77662 9.07867 37275 ft 456 kts 139°
2026-04-30 14:16 48.72626 9.13624 37287 ft 456 kts 139°
2026-04-30 14:17 48.67573 9.19370 37297 ft 457 kts 140°
2026-04-30 14:17 48.62259 9.24563 37304 ft 460 kts 147°
2026-04-30 14:18 48.56511 9.28831 37305 ft 464 kts 154°
2026-04-30 14:18 48.47410 9.33971 37297 ft 466 kts 156°
2026-04-30 14:19 48.38330 9.39025 37287 ft 466 kts 156°
2026-04-30 14:20 48.32289 9.42387 37285 ft 467 kts 156°
2026-04-30 14:20 48.23112 9.47199 37283 ft 469 kts 160°
2026-04-30 14:21 48.16872 9.49905 37283 ft 470 kts 160°
2026-04-30 14:22 48.07514 9.54084 37283 ft 468 kts 157°
2026-04-30 14:22 47.98676 9.60006 37282 ft 463 kts 146°
2026-04-30 14:23 47.88081 9.70471 37269 ft 462 kts 142°
2026-04-30 14:24 47.80152 9.78560 37250 ft 462 kts 142°
2026-04-30 14:25 47.69564 9.89289 37234 ft 462 kts 142°
2026-04-30 14:26 47.61619 9.97303 37240 ft 463 kts 142°
2026-04-30 14:27 47.53654 10.05304 37254 ft 464 kts 142°
2026-04-30 14:27 47.48331 10.10638 37264 ft 464 kts 142°
2026-04-30 14:28 47.40289 10.18670 37257 ft 465 kts 142°
2026-04-30 14:28 47.34968 10.23966 37240 ft 466 kts 142°
2026-04-30 14:29 47.24182 10.34665 37210 ft 468 kts 142°
2026-04-30 14:31 47.10682 10.47913 37203 ft 471 kts 145°
2026-04-30 14:31 47.01884 10.54395 37202 ft 476 kts 156°
2026-04-30 14:32 46.92420 10.58882 37203 ft 478 kts 161°
2026-04-30 14:33 46.86107 10.61685 37200 ft 478 kts 162°
2026-04-30 14:33 46.76389 10.65092 37205 ft 480 kts 166°
2026-04-30 14:34 46.69923 10.67295 37205 ft 480 kts 166°
2026-04-30 14:34 46.63437 10.69505 37203 ft 481 kts 166°
2026-04-30 14:35 46.53725 10.72806 37203 ft 481 kts 166°
2026-04-30 14:36 46.47233 10.75007 37202 ft 480 kts 166°
2026-04-30 14:36 46.40747 10.77201 37202 ft 480 kts 166°
2026-04-30 14:37 46.34250 10.79394 37202 ft 482 kts 166°
2026-04-30 14:37 46.27732 10.81589 37202 ft 482 kts 166°
2026-04-30 14:38 46.21214 10.83776 37201 ft 482 kts 166°
2026-04-30 14:38 46.14698 10.85958 37205 ft 482 kts 166°
2026-04-30 14:39 46.08186 10.88135 37217 ft 482 kts 166°
2026-04-30 14:39 46.01693 10.90300 37234 ft 482 kts 166°
2026-04-30 14:40 45.91913 10.93566 37248 ft 483 kts 168°
2026-04-30 14:40 45.85408 10.95712 37251 ft 483 kts 168°
2026-04-30 14:41 45.78921 10.97854 37254 ft 483 kts 168°
2026-04-30 14:41 45.72439 10.99994 37254 ft 483 kts 168°
2026-04-30 14:42 45.65826 11.02216 37254 ft 484 kts 166°
2026-04-30 14:42 45.59459 11.05134 37256 ft 484 kts 160°
2026-04-30 14:43 45.53155 11.08379 37256 ft 484 kts 160°
2026-04-30 14:43 45.46834 11.11624 37262 ft 484 kts 161°
2026-04-30 14:44 45.40474 11.14870 37270 ft 484 kts 161°
2026-04-30 14:44 45.34197 11.18064 37276 ft 484 kts 161°
2026-04-30 14:45 45.27862 11.21277 37280 ft 484 kts 161°
2026-04-30 14:45 45.21517 11.24489 37281 ft 484 kts 161°
2026-04-30 14:46 45.15207 11.27675 37281 ft 484 kts 161°
2026-04-30 14:46 45.08898 11.30854 37281 ft 484 kts 161°
2026-04-30 14:47 45.02531 11.34054 37279 ft 485 kts 161°
2026-04-30 14:47 44.96206 11.37225 37272 ft 484 kts 161°
2026-04-30 14:48 44.89909 11.40375 37264 ft 485 kts 162°
2026-04-30 14:48 44.83573 11.43537 37259 ft 485 kts 162°
2026-04-30 14:49 44.77210 11.46705 37257 ft 485 kts 162°
2026-04-30 14:49 44.70897 11.49840 37257 ft 485 kts 162°
2026-04-30 14:50 44.61344 11.54572 37257 ft 485 kts 162°
2026-04-30 14:51 44.51854 11.59257 37256 ft 485 kts 162°
2026-04-30 14:52 44.42311 11.63953 37255 ft 486 kts 163°
2026-04-30 14:52 44.32826 11.68604 37247 ft 485 kts 163°
2026-04-30 14:53 44.23306 11.72969 37236 ft 483 kts 169°
2026-04-30 14:54 44.10166 11.76038 37230 ft 480 kts 176°
2026-04-30 14:55 44.00251 11.77987 37229 ft 480 kts 176°
2026-04-30 14:55 43.93655 11.79297 36857 ft 482 kts 176°
2026-04-30 14:56 43.87072 11.80601 35480 ft 484 kts 176°
2026-04-30 14:56 43.80422 11.81909 33957 ft 487 kts 177°
2026-04-30 14:57 43.77050 11.82674 33153 ft 490 kts 174°
2026-04-30 14:57 43.70436 11.84724 31736 ft 489 kts 172°
2026-04-30 14:58 43.63906 11.86825 30755 ft 477 kts 172°
2026-04-30 14:58 43.60715 11.87848 30269 ft 472 kts 172°
2026-04-30 14:58 43.54382 11.89864 29309 ft 461 kts 172°
2026-04-30 14:59 43.48219 11.91816 28363 ft 451 kts 172°
2026-04-30 15:00 43.39236 11.94658 26975 ft 437 kts 171°
2026-04-30 15:00 43.33382 11.96507 26074 ft 428 kts 171°
2026-04-30 15:01 43.27645 11.98315 25175 ft 420 kts 171°
2026-04-30 15:01 43.24829 11.99201 24727 ft 417 kts 170°
2026-04-30 15:01 43.19221 12.00965 23825 ft 410 kts 170°
2026-04-30 15:02 43.16449 12.01836 23382 ft 406 kts 170°
2026-04-30 15:02 43.13701 12.02700 22926 ft 404 kts 170°
2026-04-30 15:03 43.05604 12.05236 21564 ft 396 kts 170°
2026-04-30 15:03 43.00305 12.06892 20659 ft 392 kts 170°
2026-04-30 15:04 42.95039 12.08534 19755 ft 387 kts 170°
2026-04-30 15:04 42.87213 12.10970 18432 ft 386 kts 169°
2026-04-30 15:05 42.79438 12.13385 17123 ft 376 kts 169°
2026-04-30 15:06 42.74437 12.14937 16493 ft 362 kts 169°
2026-04-30 15:06 42.69616 12.16285 15901 ft 347 kts 175°
2026-04-30 15:07 42.64892 12.16659 15218 ft 338 kts 180°
2026-04-30 15:07 42.60160 12.16866 14038 ft 345 kts 180°
2026-04-30 15:08 42.55396 12.17099 13183 ft 340 kts 179°
2026-04-30 15:08 42.48423 12.17460 11872 ft 334 kts 179°
2026-04-30 15:09 42.43808 12.17700 11002 ft 328 kts 178°
2026-04-30 15:09 42.39304 12.17935 10313 ft 317 kts 178°
2026-04-30 15:10 42.35112 12.18156 9814 ft 286 kts 178°
2026-04-30 15:11 42.27815 12.18539 8992 ft 247 kts 177°
2026-04-30 15:11 42.24432 12.18718 8347 ft 242 kts 177°
2026-04-30 15:12 42.19334 12.18983 7155 ft 241 kts 177°
2026-04-30 15:13 42.16037 12.19152 6632 ft 237 kts 179°
2026-04-30 15:14 42.09639 12.17614 5304 ft 234 kts 193°
2026-04-30 15:14 42.04855 12.17521 4286 ft 229 kts 162°
2026-04-30 15:16 41.97501 12.20774 2623 ft 212 kts 163°
2026-04-30 15:17 41.92259 12.22954 1620 ft 176 kts 165°
2026-04-30 15:18 41.87167 12.25081 600 ft 144 kts 166°
2026-04-30 15:19 41.84340 12.26263 33 ft 139 kts 166°